User: anonymous   Login
Location: Unspecified
(0.0000°N, 0.0000°E)
Time: 21:17:22
(UTC+00:00)
Language:

Kosmos-2004 - Orbit

View from above orbital plane
View from above orbital plane
View from above satellite
View from above satellite

Ground track
Ground track

The orbit data is extracted from the following two-line orbital elements,

1 19826U 89017A   17141.76853337 +.00000035 +00000-0 +21835-4 0  9998
2 19826 082.9535 203.5259 0031702 093.9106 045.2793 13.72236011414024
Epoch (UTC): 21 May 2017 18:26:41
Eccentricity: 0.0031702
inclination: 82.9535°
perigee height: 968 km
apogee height: 1015 km
right ascension of ascending node: 203.5259°
argument of perigee: 93.9106°
revolutions per day: 13.72236011
mean anomaly at epoch: 45.2793°
orbit number at epoch: 41402

The dashed part of the orbit path shows where the satellite is in the earth's shadow,  

DLR